AO-07 1 07530U 74089B 13339.21163438 -.00000015 00000-0 17845-3 0 8398 2 07530 101.4505 322.6162 0011733 315.2516 112.2467 12.53600054787217 FO-29 1 24278U 96046B 13338.53660825 -.00000011 00000-0 21420-4 0 2563 2 24278 098.5323 014.1228 0351519 082.6647 074.6524 13.53010829854344 SO-33 1 25509U 98061B 13338.83731231 .00000557 00000-0 95765-4 0 6418 2 25509 031.4325 181.3174 0350953 212.0897 227.4435 14.29248946789325 RS-22 1 27939U 03042A 13339.52962631 .00000976 00000-0 19153-3 0 100 2 27939 097.7978 158.4833 0013579 007.7112 352.4322 14.64714338544379 VO-52 1 28650U 05017B 13338.57348481 .00001704 00000-0 20737-3 0 5970 2 28650 097.5627 348.4205 0027156 081.1117 033.2397 14.84414905464354 HO-68 1 36122U 09072B 13339.59738542 -.00000044 00000-0 00000+0 0 1208 2 36122 100.2832 032.1364 0007285 323.2806 036.7823 13.16309348190969 AO-73 1 39417U 13066B 13339.50223934 .00001765 00000-0 24848-3 0 491 2 39417 097.7993 051.6859 0063840 150.1043 210.3859 14.77145472 2090 UO-11 1 14781U 84021B 13339.10871268 .00000696 00000-0 96191-4 0 3544 2 14781 097.8813 037.7838 0010223 095.0443 265.1936 14.81150231599234 AO-16 1 20439U 90005D 13338.62984147 .00000189 00000-0 86118-4 0 8985 2 20439 098.4895 274.8315 0011101 021.1180 103.7333 14.32242151246636 LO-19 1 20442U 90005G 13338.68910244 .00000186 00000-0 84367-4 0 8376 2 20442 098.4596 276.1393 0011806 010.3596 349.7829 14.32449718246834 AO-27 1 22825U 93061C 13338.83999021 .00000152 00000-0 76443-4 0 5416 2 22825 098.6397 281.2177 0009237 142.6888 275.8732 14.29621625 53010 IO-26 1 22826U 93061D 13339.45063031 .00000165 00000-0 81302-4 0 2982 2 22826 098.6338 282.0765 0009893 134.9096 002.8370 14.29912405 53230 GO-32 1 25397U 98043D 13339.15164593 .00000103 00000-0 63868-4 0 2221 2 25397 098.4413 299.6854 0002160 130.6347 294.4526 14.23380440800260 NO-44 1 26931U 01043C 13338.54773115 .00000083 00000-0 64230-4 0 4816 2 26931 067.0502 180.3223 0006370 262.8735 097.1642 14.29996949635770 SO-50 1 27607U 02058C 13339.46931853 .00000844 00000-0 15032-3 0 2392 2 27607 064.5574 102.6074 0032005 091.1467 339.4971 14.73234797588940 CO-55 1 27844U 03031E 13338.57999074 .00000290 00000-0 15275-3 0 8005 2 27844 098.7008 345.1761 0010764 116.2685 002.1320 14.21325835540936 CO-57 1 27848U 03031J 13338.54425234 .00000231 00000-0 12636-3 0 7426 2 27848 098.7095 344.7451 0010639 121.7498 000.0433 14.21037756540856 AO-51 1 28375U 04025K 13338.43063208 .00000227 00000-0 80732-4 0 7162 2 28375 098.2264 287.2637 0082657 220.4235 254.1917 14.41220408495855 CP3 1 31129U 07012N 13339.44308005 .00000972 00000-0 22671-3 0 6164 2 31129 097.9140 322.5788 0098235 254.0430 260.2017 14.54037310351878 CO-65 1 32785U 08021C 13339.15447131 .00001519 00000-0 18659-3 0 8066 2 32785 097.7291 031.6404 0015583 106.8269 310.4573 14.84389512303233 PRISM 1 33493U 09002B 13339.66143943 .00003847 00000-0 43321-3 0 4306 2 33493 098.2339 142.5837 0018022 358.3318 001.7846 14.87160873263396 SOHLA-1 1 33496U 09002E 13338.88122022 .00000566 00000-0 10165-3 0 2153 2 33496 098.1509 094.6466 0007641 134.8634 338.1043 14.70474641260953 TISAT-1 1 36799U 10035E 13339.69006962 .00002834 00000-0 34559-3 0 6937 2 36799 098.0294 065.4078 0013286 228.3432 131.6668 14.84114173184000 STUDSAT 1 36801U 10035G 13339.22435822 .00010741 00000-0 10905-2 0 7262 2 36801 098.0410 069.8797 0010819 205.1553 232.6637 14.90983565184178 ALMASAT-1 1 38078U 12006B 13339.46796931 .00022583 00000-0 51139-3 0 8530 2 38078 069.4769 160.9168 0659803 286.1981 066.7706 14.34472359 93710 XATCOBEO 1 38082U 12006F 13339.67533902 .00105973 52854-5 15500-2 0 7360 2 38082 069.4716 111.1090 0470357 259.0704 095.7210 14.83325767 95095 CUBEBUG-1 1 39153U 13018D 13339.64496007 .00001438 00000-0 21173-3 0 6438 2 39153 098.0629 055.2975 0016940 252.1466 107.7912 14.76856268 32988 ESTCUBE-1 1 39161U 13021C 13339.45824770 .00001159 00000-0 20458-3 0 6134 2 39161 098.1173 056.7257 0008865 293.6626 066.3655 14.69318241 31143 NOAA-10 1 16969U 86073A 13339.56435037 .00000089 00000-0 53616-4 0 5894 2 16969 098.5312 003.5404 0013382 103.8840 058.3765 14.27689484416398 NOAA-11 1 19531U 88089A 13339.34456418 .00000058 00000-0 52097-4 0 6139 2 19531 098.6995 058.2483 0012213 130.5709 229.6529 14.15042145300321 NOAA-12 1 21263U 91032A 13339.52669806 .00000077 00000-0 50827-4 0 722 2 21263 098.6833 003.4317 0014876 083.5610 081.0677 14.25605170172965 MET-3/5 1 21655U 91056A 13339.48045007 .00000100 00000-0 22662-3 0 8482 2 21655 082.5553 133.2844 0014046 064.7800 295.4777 13.17049608 72485 MET-2/21 1 22782U 93055A 13339.13260712 .00000058 00000-0 38668-4 0 9149 2 22782 082.5490 327.2762 0023715 090.5054 317.0622 13.83717082 23287 OKEAN-4 1 23317U 94066A 13338.84786596 .00001280 00000-0 14734-3 0 3944 2 23317 082.5398 250.0212 0021524 026.9556 037.8482 14.84848365 34260 NOAA-14 1 23455U 94089A 13339.47793534 -.00000037 00000-0 35638-5 0 5481 2 23455 098.7933 061.2440 0008952 225.5622 262.7337 14.13934994976576 NOAA-15 1 25338U 98030A 13339.85043488 .00000232 00000-0 98403-4 0 9793 2 25338 098.7386 329.2525 0010827 354.7520 005.4016 14.25303301809304 RESURS 1 25394U 98043A 13338.98993025 .00000063 00000-0 44991-4 0 5323 2 25394 098.3863 306.8376 0002535 105.9439 299.9997 14.24350711800674 FENGYUN1 1 25730U 99025A 13339.55090939 .00002317 00000-0 13085-2 0 275 2 25730 098.8958 297.1427 0025876 294.7367 197.2633 14.11046539750203 OKEAN-0 1 25860U 99039A 13338.82615765 .00000685 00000-0 10972-3 0 1138 2 25860 098.0160 299.2311 0001062 076.7555 339.9079 14.74823322773506 NOAA-16 1 26536U 00055A 13339.76866145 .00000291 00000-0 15618-3 0 4681 2 26536 099.0202 034.0310 0010717 016.5539 343.6460 14.12953036680804 NOAA-17 1 27453U 02032A 13339.84961375 .00000184 00000-0 79160-4 0 3736 2 27453 098.3107 344.8089 0012306 026.3544 333.8731 14.24652277595167 NOAA-18 1 28654U 05018A 13339.84774971 .00000097 00000-0 52935-4 0 8617 2 28654 099.1229 310.7357 0015131 086.0492 274.2880 14.11901881440288 NOAA-19 1 33591U 09005A 13339.83444830 .00000156 00000-0 86119-4 0 350 2 33591 098.9215 280.6877 0013626 308.6049 051.4385 14.11593909248713 HUBBLE 1 20580U 90037B 13338.16132502 .00002445 00000-0 15932-3 0 3871 2 20580 028.4695 238.0919 0003301 006.1787 147.6659 15.04291874 95316 ISS 1 25544U 98067A 13339.60554637 .00012995 00000-0 22902-3 0 1711 2 25544 051.6493 339.0083 0001280 103.1709 359.7660 15.50769926861290 CO-58 1 28895U 05043F 13338.79329965 .00000927 00000-0 19605-3 0 6373 2 28895 097.8488 185.6203 0016242 263.1758 096.7596 14.61384316431850 FALCON 1 30776U 07006E 13338.18167392 .00006396 00000-0 36163-3 0 7513 2 30776 035.4295 237.6351 0002388 301.1708 188.2208 15.12507705371150 MAST 1 31126U 07012K 13338.81185366 .00000645 00000-0 15241-3 0 9169 2 31126 097.8955 325.1355 0091738 240.1059 240.0674 14.54829586352129 CAPE1 1 31130U 07012P 13338.96146138 .00000896 00000-0 21051-3 0 9203 2 31130 097.9149 321.7276 0098713 256.6823 102.3352 14.53833889351587 COMPASS 1 32787U 08021E 13339.18662122 .00002383 00000-0 27582-3 0 7963 2 32787 097.7305 033.1856 0015785 101.4788 258.8201 14.86340953303354 AAUSAT2 1 32788U 08021F 13338.80196370 .00003184 00000-0 36185-3 0 7801 2 32788 097.7314 033.5883 0015232 101.5351 258.7576 14.86878392303349 DO-64 1 32789U 08021G 13339.76673617 .00007416 00000-0 76461-3 0 8187 2 32789 097.7489 039.4061 0014394 089.6623 270.6747 14.90193669303662 CO-66 1 32791U 08021J 13338.46998976 .00001959 00000-0 23351-3 0 7741 2 32791 097.7303 031.6108 0016336 105.5572 004.6163 14.85312630303140 RS-30 1 32953U 08025A 13339.41818454 .00000010 00000-0 00000+0 0 4402 2 32953 082.5002 321.7059 0017709 216.9122 143.0738 12.43040285251187 METEOR-M 1 35865U 09049A 13339.57349876 -.00000011 00000-0 14507-4 0 475 2 35865 098.5802 027.5855 0001955 318.0077 042.0962 14.21899920218828 RS-38 1 35869U 09049E 13339.22470158 .00000068 00000-0 49997-4 0 44 2 35869 098.5742 027.1090 0004093 308.0321 052.0493 14.22161490218802 JUGNU 1 37839U 11058B 13339.15228302 .00000463 00000-0 10613-3 0 5158 2 37839 019.9631 350.8392 0019225 007.2023 049.4585 14.12214919111095 SRMSAT 1 37841U 11058D 13339.16028749 .00000429 00000-0 91769-4 0 5148 2 37841 019.9738 006.2334 0011895 314.8656 090.4694 14.10273699110935 RAX-2 1 37853U 11061D 13339.45221356 .00007861 00000-0 57342-3 0 6625 2 37853 101.7028 272.5555 0227765 255.7477 216.3852 14.85750089113856 AUBIESAT 1 37854U 11061E 13338.44467134 .00008516 00000-0 60591-3 0 6460 2 37854 101.7066 272.3331 0226934 256.7101 228.1145 14.86668755113733 HRBE 1 37855U 11061F 13339.63743175 .00007880 00000-0 56535-3 0 6562 2 37855 101.7065 273.7006 0228369 254.0492 232.4951 14.86227693113897 RS-39 1 38051U 11062C 13339.52568853 .00033740 00000-0 86368-3 0 361 2 38051 051.6337 100.3648 0009358 171.9229 284.9850 15.39048828104102 E-STAR 1 38079U 12006C 13339.48760120 .00064049 39522-5 10783-2 0 6530 2 38079 069.4685 125.8578 0534271 267.2560 147.6679 14.67211737 94678 GOLIAT 1 38085U 12006J 13339.50714264 .00059152 38320-5 10118-2 0 5993 2 38085 069.4690 129.6167 0547356 269.0570 084.7810 14.64158234 94572 HORYU-2 1 38340U 12025D 13339.09066206 .00001980 00000-0 32711-3 0 6886 2 38340 098.2370 288.4562 0013631 070.5972 289.6709 14.71473824 83247 RS-40 1 38736U 12041D 13338.80910084 .00000010 00000-0 00000+0 0 4426 2 38736 082.4812 048.7441 0020337 315.7338 044.2122 12.42874248 61449 PROITERES 1 38756U 12047B 13339.61701302 .00000839 00000-0 13421-3 0 3642 2 38756 098.2424 059.7114 0011368 282.1590 077.8359 14.74482905 66659 RAIKO 1 38852U 98067CN 13218.07382584 .24681979 12625-4 36599-3 0 3409 2 38852 051.6160 184.0336 0004489 261.9162 100.6538 16.48474690 47849 BEESAT-3 1 39134U 13015E 13339.51198898 .00005635 00000-0 44121-3 0 4403 2 39134 064.8766 029.9919 0008467 332.5446 027.5224 15.01928286 34540 BEESAT-2 1 39136U 13015G 13339.52304813 .00004923 00000-0 38915-3 0 4304 2 39136 064.8754 030.0403 0007945 330.9036 029.1638 15.01725152 34541 ORS OBJ A 1 39380U 13064A 13339.92243614 .00010058 00000-0 44711-3 0 330 2 39380 040.5074 157.7689 0002817 063.9487 296.1524 15.21388864 2415 ORS OBJ B 1 39381U 13064B 13339.00669528 .00003656 00000-0 17021-3 0 167 2 39381 040.5158 163.1514 0003646 026.9630 333.1501 15.20948822 2273 ORS OBJ C 1 39382U 13064C 13339.92149165 .00028615 00000-0 12402-2 0 269 2 39382 040.5056 157.7620 0000625 089.1778 270.9181 15.21746598 2400 ORS OBJ D 1 39383U 13064D 13338.87324577 .00010649 00000-0 47459-3 0 208 2 39383 040.5034 163.8776 0001846 076.9345 283.1924 15.21262595 2251 TECHEDST3 1 39415U 98067DD 13339.81508278 .00223729 00000-0 31288-2 0 383 2 39415 051.6473 337.6310 0003147 058.0621 302.1189 15.56167176 2405 DNEPR E 1 39420U 13066E 13339.46992474 .00001658 00000-0 31212-3 0 216 2 39420 097.7869 051.2576 0144348 145.3571 215.7174 14.59309911 2058 DNEPR J 1 39424U 13066J 13339.71119396 .00001553 00000-0 24285-3 0 140 2 39424 097.7932 051.7136 0097838 146.1800 214.6201 14.69604560279497 DNEPR L 1 39426U 13066L 13339.66769703 .00001627 00000-0 26509-3 0 120 2 39426 097.7914 051.6176 0109431 145.7936 215.0889 14.67083644 2088 TRITON-1 1 39427U 13066M 13339.69219086 .00001746 00000-0 29574-3 0 136 2 39427 097.7895 051.5844 0120708 145.2849 215.6813 14.64591648 2062 DELFIN3XT 1 39428U 13066N 13339.71771154 .00002958 00000-0 52050-3 0 141 2 39428 097.7876 051.5464 0132359 144.9102 216.1412 14.62012443 2108 GOMX-1 1 39430U 13066Q 13339.70780156 .00001755 00000-0 33569-3 0 200 2 39430 097.7841 051.4061 0159008 144.5724 216.6665 14.56050950 2160 $50SAT 1 39436U 13066W 13338.49533829 .00011209 00000-0 13451-2 0 82 2 39436 097.8022 050.8466 0031976 168.3922 191.8227 14.83817507 1949 /EX